Presure
246 242 226 252 249 279 272 312 389 495 555 415 570 542 484 392 337 347 409 429 348 354 306 284 266 249 187 208 188 197 188 191 177 173 198 179 176 193 174 209 183 110 104 109
246 240 224 250 254 269 285 279 318 390 533 564 397 570 492 482 357 342 399 418 414 356 336 286 269 255 231 216 203 177 168 191 186 185 173 188 167 186 185 183 190 193 194 186
251 255 229 249 254 254 265 288 281 332 410 570 553 454 564 475 374 332 395 407 426 358 356 295 274 258 239 223 211 182 171 181 190 187 189 126 181 177 187 208 186 178 182 190
249 259 257 217 249 252 253 274 292 288 392 414 577 474 547 560 494 332 380 395 416 393 366 311 283 262 246 228 219 186 183 194 174 191 188 191 190 183 184 192 196 189 183 180
229 264 205 270 259 246 255 263 274 287 302 356 577 590 418 573 564 369 336 384 398 438 366 337 297 268 252 239 224 209 182 182 189 195 183 191 189 192 174 183 211 103 193 182
207 220 212 225 269 278 267 255 264 282 284 312 376 586 594 419 565 564 345 370 384 406 418 372 316 282 256 247 227 225 207 182 194 209 197 192 179 189 182 175 182 193 196 190
210 234 218 235 238 246 279 286 259 266 293 289 362 404 599 503 417 550 565 336 370 385 419 400 353 299 264 253 242 235 212 190 183 197 194 201 196 181 160 172 178 193 197 168
226 216 223 242 247 236 243 276 299 261 272 294 303 413 447 599 442 409 562 566 338 369 387 444 375 329 284 262 248 241 227 210 211 196 200 186 200 189 177 166 187 182 193 192
207 204 199 237 229 245 237 247 291 255 260 288 298 322 427 597 591 427 402 565 572 334 366 388 433 377 313 277 259 248 240 222 220 208 169 181 199 194 185 180 178 168 189 181
205 210 206 214 234 236 246 251 256 298 275 269 284 304 388 481 593 527 418 399 564 598 335 361 388 442 402 309 273 257 254 235 224 221 209 209 191 192 202 189 189 176 178 174
211 210 202 240 227 216 236 241 255 256 292 260 274 307 325 464 515 596 445 408 403 567 597 339 361 386 418 377 307 272 258 251 236 232 217 215 205 197 206 198 184 185 181 172
199 208 196 229 219 228 232 239 249 262 275 281 271 290 308 383 474 536 525 423 403 405 567 579 342 356 381 432 416 305 274 262 251 244 234 221 231 218 207 183 184 183 187 183
206 204 204 201 209 229 242 225 249 256 266 297 264 273 308 353 474 503 518 502 414 405 421 561 516 353 353 376 456 402 307 271 264 252 250 233 222 221 215 194 193 181 183 186
221 201 209 210 226 231 243 231 233 249 253 259 276 263 303 338 481 469 515 510 428 405 461 520 549 467 408 337 364 378 421 332 271 265 256 249 240 233 220 225 193 194 186 184
202 204 201 200 211 224 239 235 237 250 257 267 266 272 283 325 488 470 504 505 491 406 487 491 485 544 447 479 329 349 371 400 403 280 269 262 248 227 243 220 222 194 192 193
201 198 203 203 201 226 233 233 241 264 250 255 269 288 290 325 434 474 465 502 498 411 393 475 496 471 539 423 445 354 335 358 368 389 287 273 258 248 249 240 215 203 199 191
191 204 208 209 203 222 229 236 243 236 247 258 275 296 276 304 378 473 463 499 495 444 391 477 482 476 465 528 407 414 483 320 342 364 387 390 272 268 252 253 245 214 206 204
210 222 202 221 189 224 226 237 229 237 248 260 274 297 285 303 370 475 459 497 491 484 394 400 466 456 461 474 464 402 393 517 366 327 351 363 384 316 268 253 255 229 227 210
213 215 208 227 222 224 223 233 244 244 250 257 276 288 278 306 378 476 460 494 489 482 401 381 457 454 448 453 454 446 400 374 486 498 418 332 344 353 369 276 266 252 246 245
214 214 218 231 222 231 230 224 249 232 260 255 274 299 280 309 405 481 458 490 483 473 471 380 462 453 445 446 439 440 439 402 370 376 487 504 387 333 348 389 364 277 273 261
214 206 219 234 221 223 240 213 235 233 256 254 276 297 281 308 449 475 485 485 474 463 461 383 368 460 458 444 437 439 432 429 411 383 358 375 455 515 367 343 403 349 371 345
219 211 213 228 225 213 237 238 236 237 258 258 279 287 289 311 487 480 481 480 465 448 439 385 365 409 431 447 451 443 431 436 433 423 400 373 355 377 421 499 448 376 454 358
216 230 219 227 232 212 216 237 237 250 246 255 284 278 291 319 489 483 480 466 447 433 425 387 364 355 405 402 399 403 415 426 436 441 445 435 392 365 350 365 401 462 508 485
206 218 217 225 217 232 224 223 228 250 257 266 282 276 295 379 478 474 469 453 436 423 415 385 361 351 399 400 399 398 395 383 396 404 410 418 428 437 413 364 342 356 383 416
220 224 223 233 206 210 230 235 247 242 254 270 268 284 308 485 478 460 463 443 428 415 408 371 353 359 401 400 399 397 393 386 383 377 373 388 405 415 418 423 432 395 349 344
224 220 222 209 230 223 233 230 247 260 261 269 272 291 325 467 463 465 445 437 422 405 377 353 394 410 409 406 403 403 402 401 400 400 398 395 392 389 394 421 430 430 428 430
222 218 229 218 229 226 236 243 242 255 272 275 280 304 475 465 464 449 440 419 402 401 397 416 414 408 404 402 399 396 396 396 396 396 398 399 402 403 406 402 401 420 428 432
Wind_Speed
74 77 76 81 78 87 79 90 83 48 28 34 18 17 23 41 43 48 51 59 99 111 129 131 128 127 98 124 121 116 113 122 122 120 116 108 105 107 95 98 98 101 89 96
69 72 74 78 77 80 87 82 89 78 36 26 28 17 19 30 43 48 50 57 75 107 124 131 131 128 126 127 121 129 119 130 126 125 114 118 110 109 105 106 100 98 99 100
63 67 67 72 77 76 79 84 77 87 70 29 25 20 17 26 42 46 48 55 65 102 117 133 133 131 129 129 127 131 120 124 124 125 124 73 121 112 109 108 102 101 102 100
62 64 66 67 72 76 76 80 80 77 77 60 29 24 20 16 27 44 48 54 60 89 112 131 134 133 131 131 133 132 128 122 121 131 132 135 128 116 108 107 106 108 107 107
63 62 61 68 70 70 73 77 75 75 82 76 32 27 18 20 18 43 48 54 59 65 106 126 135 135 135 135 137 123 130 130 134 135 130 134 125 119 105 98 111 54 110 110
56 64 54 68 76 71 72 69 72 75 69 80 69 31 27 15 20 20 48 53 59 62 89 115 133 138 137 138 135 130 129 132 133 138 133 133 121 116 108 109 110 110 109 111
58 61 65 67 70 71 81 77 68 72 78 70 80 57 29 24 16 21 22 53 59 65 71 102 125 139 140 141 139 138 131 135 128 130 129 132 127 112 102 114 115 108 110 96
61 61 63 67 70 68 70 91 75 70 74 76 78 62 46 27 21 18 21 25 58 65 70 79 114 134 144 144 144 140 137 135 133 130 130 127 126 119 117 111 115 113 106 107
60 57 52 69 72 73 68 72 85 68 69 79 75 72 53 28 25 20 21 23 26 64 70 76 87 118 143 148 149 145 142 140 137 133 103 124 127 122 123 125 123 108 111 111
59 65 62 71 69 73 71 77 82 79 79 74 75 79 69 40 27 23 21 22 24 27 69 75 80 86 110 147 151 152 150 147 140 138 136 135 132 129 128 130 129 119 117 114
61 64 61 70 70 72 75 71 82 82 85 70 77 85 85 47 33 24 23 22 25 26 30 75 79 83 89 121 150 156 153 152 150 147 142 141 135 131 131 135 132 129 123 116
56 61 53 70 73 72 72 72 76 91 97 82 79 85 80 74 39 27 25 23 25 30 28 33 81 85 88 93 107 153 157 155 155 153 150 142 146 137 135 135 135 132 131 125
59 63 64 64 72 72 74 69 80 82 94 90 78 83 85 88 42 31 27 25 25 29 34 30 44 87 90 93 87 107 156 158 158 155 157 151 145 142 139 139 140 129 132 130
56 61 68 70 71 72 77 71 71 80 79 88 84 78 92 95 43 37 27 25 26 26 29 30 31 53 81 94 98 102 109 148 161 158 159 158 154 153 146 148 139 142 137 137
59 64 66 65 73 73 75 74 76 84 90 98 82 87 88 96 43 38 28 26 25 26 26 28 35 34 58 53 98 102 105 105 117 165 162 161 159 146 159 150 152 145 141 144
59 60 68 70 67 73 73 74 82 94 85 88 97 96 93 97 64 39 35 26 26 25 28 29 32 38 34 65 62 102 105 108 111 111 167 166 159 158 160 161 153 149 146 140
55 66 69 72 67 73 74 80 85 80 87 97 107 104 90 95 78 40 36 27 26 25 28 28 28 32 39 35 68 69 54 107 109 111 111 113 167 168 161 166 164 157 154 153
61 62 68 69 53 73 75 82 76 85 92 100 110 109 98 101 79 40 37 27 26 23 28 28 26 31 36 37 45 68 73 46 102 112 113 114 116 154 170 162 167 159 161 158
61 65 69 67 70 73 75 80 91 91 98 101 112 107 98 106 85 39 37 27 25 24 28 28 27 30 34 36 40 49 68 78 49 50 80 117 119 120 118 176 171 166 166 169
60 65 66 69 70 75 81 73 96 85 102 101 113 113 101 109 79 37 36 26 24 24 24 28 26 29 31 34 39 43 50 66 79 79 45 49 99 121 121 111 120 177 175 173
59 65 66 72 71 73 88 67 87 88 103 105 116 114 104 109 58 37 30 25 24 24 23 28 28 26 28 32 35 39 45 50 62 74 85 80 52 47 109 120 102 123 122 141
61 65 67 71 72 71 86 92 93 94 103 111 120 111 111 111 39 34 29 25 24 24 24 28 28 26 26 26 28 34 40 43 48 55 67 79 87 78 61 50 79 107 86 120
62 67 66 72 79 71 70 92 97 105 98 108 122 110 112 114 36 32 27 25 24 25 26 28 29 30 28 31 35 36 36 37 38 42 46 53 72 83 91 85 69 57 56 69
65 66 67 74 71 83 80 79 88 106 108 116 117 112 116 96 35 31 26 25 25 26 27 29 30 32 32 34 36 39 41 45 44 46 48 48 50 51 66 86 95 89 77 69
65 69 71 82 68 66 89 94 103 99 106 119 110 116 115 37 32 31 26 25 26 28 29 30 32 34 35 37 38 40 43 46 48 51 53 52 52 53 56 58 59 77 93 95
68 69 72 67 85 81 92 93 105 110 112 115 114 116 113 37 33 27 28 27 28 30 32 33 33 34 35 37 38 39 40 43 45 47 49 52 53 56 57 54 55 57 60 63
69 68 81 75 86 86 96 101 100 110 120 117 118 117 40 35 30 29 28 30 33 34 34 33 34 34 35 36 37 38 39 41 42 43 45 47 49 50 52 54 55 53 54 56
Wind_Direction
356 359 3 4 7 12 8 13 14 4 347 357 319 276 241 213 206 206 208 209 198 199 196 199 200 200 202 205 203 204 206 208 216 221 216 224 223 223 219 221 223 236 236 240
356 358 1 4 5 11 13 12 14 13 359 344 352 311 249 235 211 208 210 210 205 200 197 199 199 200 201 203 204 210 220 210 214 219 225 218 228 222 220 221 221 221 222 225
359 1 2 4 6 7 10 12 9 13 10 347 343 334 295 239 216 211 212 211 212 201 200 200 200 199 201 204 206 209 221 214 213 218 221 220 225 224 221 222 221 224 224 224
4 4 4 3 6 7 8 11 12 10 11 9 343 346 310 288 238 215 215 213 214 205 203 201 201 201 202 204 207 211 211 210 222 215 221 222 223 226 220 224 223 224 225 226
357 10 0 7 7 7 8 9 11 11 14 12 346 339 340 301 276 223 217 216 214 215 204 203 203 202 202 204 208 206 215 215 216 217 222 223 225 225 229 225 223 226 224 227
353 356 359 360 13 5 8 8 10 10 9 12 8 341 330 320 292 267 220 218 217 216 211 207 205 204 204 204 209 211 210 220 218 215 219 223 226 224 224 227 227 226 227 230
353 358 357 360 2 8 9 6 7 9 9 8 8 3 330 327 297 280 261 221 218 217 218 212 208 206 205 206 208 211 213 218 224 218 222 222 226 227 236 231 229 229 230 232
348 355 356 6 7 2 4 10 4 7 7 7 9 3 354 324 318 280 270 254 221 219 218 220 213 209 208 207 210 212 212 217 217 219 220 226 226 225 230 237 228 229 229 232
348 353 359 2 358 3 358 5 5 3 6 5 6 3 359 326 316 302 270 261 249 221 219 219 221 215 210 210 210 213 211 216 219 219 231 230 224 227 227 232 234 239 229 232
345 346 353 352 360 358 1 5 7 3 2 5 3 2 1 347 316 310 291 264 256 247 221 220 220 223 221 212 211 213 213 213 219 219 222 223 225 225 226 231 233 236 235 236
341 343 352 359 351 349 355 357 4 4 359 1 2 2 3 347 334 308 300 278 257 251 242 222 221 222 225 220 214 214 215 214 217 219 221 224 224 223 223 227 233 235 236 239
340 343 349 351 346 346 350 353 1 4 1 359 360 358 358 355 340 319 305 284 265 249 247 239 222 222 223 226 225 216 216 217 217 218 219 223 223 224 223 232 233 235 235 236
337 340 343 347 344 347 352 343 356 0 2 358 358 357 356 357 339 326 309 296 272 259 246 242 234 223 223 224 229 226 218 218 219 220 219 221 223 223 223 227 229 237 237 238
341 338 336 339 343 346 351 344 349 356 356 0 355 356 355 356 335 330 312 298 284 267 258 244 238 232 225 223 224 225 229 222 220 221 221 221 222 223 224 224 230 230 236 238
333 333 336 340 337 339 348 346 349 353 355 357 353 354 352 352 332 329 314 298 287 275 265 252 242 239 231 233 224 225 227 229 229 222 222 223 223 224 223 224 225 231 233 235
330 334 331 333 337 337 343 344 349 352 353 353 354 352 351 351 343 326 320 299 288 281 268 256 247 241 242 229 232 227 225 228 229 232 223 224 224 225 226 225 226 230 232 236
332 326 326 327 336 334 339 344 348 347 349 349 352 348 351 350 346 325 319 300 291 287 273 262 256 248 243 240 231 232 236 226 229 231 232 232 226 226 227 227 227 229 231 233
322 329 325 329 338 333 336 344 343 346 346 347 348 347 349 349 343 323 319 302 292 284 278 270 258 250 245 242 236 231 231 238 230 228 231 232 234 229 228 228 229 229 230 232
320 319 321 334 330 334 333 342 344 345 344 346 345 345 347 347 343 321 317 303 292 284 281 276 261 255 251 246 242 237 232 230 238 239 233 230 233 235 237 229 230 231 231 231
317 318 322 336 330 338 341 336 343 343 344 345 343 343 345 344 339 318 316 303 293 284 276 277 262 258 254 250 244 241 238 234 231 233 241 240 235 233 235 237 238 232 232 233
316 317 324 336 329 333 341 331 342 341 343 344 341 341 343 343 330 316 310 301 293 287 280 279 275 261 256 253 250 247 243 241 237 235 233 236 241 243 237 237 239 239 239 237
318 317 321 334 332 326 338 342 340 340 341 342 340 339 340 341 317 313 307 298 294 290 284 281 277 271 264 259 254 251 249 247 244 241 239 237 236 239 242 243 241 240 240 240
317 326 322 332 335 329 331 340 338 337 339 341 340 339 337 339 314 310 304 300 295 290 286 283 280 278 267 262 258 255 252 252 252 250 249 245 239 238 237 239 242 242 243 241
314 324 322 330 325 335 335 338 337 337 337 340 338 338 336 337 315 311 305 301 296 291 286 287 284 283 271 266 262 259 256 252 250 249 249 248 247 247 242 240 239 241 243 243
320 322 327 329 326 328 336 334 334 334 337 337 337 336 337 318 313 313 305 301 297 294 289 292 290 288 274 270 267 263 260 257 254 250 247 248 249 249 247 246 246 243 241 242
320 322 327 323 332 331 333 334 332 332 337 336 336 333 335 319 315 309 308 302 302 301 301 299 289 281 277 274 271 267 264 261 258 257 255 253 250 248 248 250 250 248 246 246
319 321 327 327 331 332 330 331 332 332 333 335 333 334 320 318 313 312 309 310 310 305 302 294 290 287 283 278 274 271 268 265 262 259 257 255 254 253 251 249 248 250 249 248